Tracking 31011 objects as of 12-Jul-2025
HD Live streaming from Space Station
objects crossing your sky now

DELTA 1 DEB

Track DELTA 1 DEB now!
10-day predictions


NORAD ID: 21545
Int'l Code: 1975-052GZ
Perigee: 1,009.4 km
Apogee: 1,357.8 km
Inclination: 99.6 °
Period: 108.9 minutes
Semi major axis: 7554 km
RCS: 0.0066 m2 (small)
Launch date: June 12, 1975
Source: United States (US)
Launch site: AIR FORCE WESTERN TEST RANGE (AFWTR)

Note: This is SATELLITE DEBRIS
Your satellite tracking list
Your tracking list is empty




NASA's NSSDC Master Catalog

Two Line Element Set (TLE):
1 21545U 75052GZ  25191.38005273  .00000100  00000-0  29180-3 0  9996
2 21545  99.6447 351.8633 0230578 165.0988 226.3807 13.22162159647714
Source of the keplerian elements: AFSPC